This is the latest recevied weather packets stored in our database for station/object N1OF. If no packets are shown the sender has not sent any weather packets the latest 10 day(s).
| Time | Temp. | Humidity | Pressure | Rain* | Wind** | Luminosity | Snow |
|---|---|---|---|---|---|---|---|
| 1778023967 | 9.44° C | 96% | 1009.4 hPa | 1.27 mm | - | - | - |
| 1778023664 | 9.44° C | 96% | 1009.3 hPa | 1.27 mm | - | - | - |
| 1778023361 | 9.44° C | 96% | 1009.5 hPa | 1.78 mm | - | - | - |
| 1778023058 | 9.44° C | 96% | 1009.6 hPa | 1.78 mm | - | - | - |
| 1778022757 | 9.44° C | 96% | 1009.6 hPa | 1.27 mm | - | - | - |
| 1778022455 | 9.44° C | 96% | 1009.4 hPa | 1.27 mm | - | - | - |
| 1778022151 | 9.44° C | 96% | 1009.3 hPa | 0 mm | - | - | - |
| 1778021848 | 9.44° C | 96% | 1009.2 hPa | 0 mm | - | - | - |
| 1778021545 | 9.44° C | 96% | 1009.1 hPa | 1.78 mm | - | - | - |
| 1778021240 | 9.44° C | 96% | 1009.1 hPa | 1.78 mm | - | - | - |
| 1778020938 | 9.44° C | 96% | 1008.8 hPa | 1.27 mm | - | - | - |
| 1778020635 | 9.44° C | 96% | 1008.8 hPa | 1.27 mm | - | - | - |
| 1778020331 | 9.44° C | 96% | 1009 hPa | 1.78 mm | - | - | - |
| 1778020027 | 9.44° C | 96% | 1009.2 hPa | 1.78 mm | - | - | - |
| 1778019723 | 9.44° C | 96% | 1009 hPa | 0 mm | - | - | - |
| 1778019421 | 9.44° C | 96% | 1008.9 hPa | 0 mm | - | - | - |
| 1778019117 | 9.44° C | 96% | 1008.9 hPa | 1.78 mm | - | - | - |
| 1778018815 | 10° C | 96% | 1008.7 hPa | 1.78 mm | - | - | - |
| 1778018512 | 10° C | 96% | 1008.6 hPa | 0 mm | - | - | - |
| 1778018210 | 10° C | 96% | 1008.8 hPa | 0 mm | - | - | - |
| 1778017908 | 10° C | 96% | 1008.6 hPa | 0 mm | - | - | - |
| 1778017605 | 10° C | 96% | 1008.7 hPa | 0 mm | - | - | - |
| 1778017302 | 10° C | 96% | 1008.6 hPa | 0 mm | - | - | - |
| 1778017000 | 10° C | 95% | 1008.7 hPa | 1.27 mm | - | - | - |
| 1778016696 | 10° C | 96% | 1008.8 hPa | 1.27 mm | - | - | - |
* Rain latest hour (hover to see other rain measurements)
** Current wind speed in m/s (hover to see current wind gust speed)